• In Latvia
  • List of Countries
  • For 7 days
  • Water Temperature
  • Satellite Maps
  • Weather Map
  • Weather Widgets
  • user-avatar
    Login

    Hourly Weather Malanje

    Today, 27 May, Saturday

    Time Temperature Precipitation Wind Pressure Humidity
    00:00 +20°C° 0 mm 2 mps 666 mmHg 83%
    01:00 +18°C° 0 mm 2 mps 666 mmHg 88%
    02:00 +18°C° 0 mm 2 mps 666 mmHg 91%
    03:00 +17°C° 0 mm 2 mps 666 mmHg 93%
    04:00 +17°C° 0 mm 2 mps 665 mmHg 96%
    05:00 +17°C° 0 mm 2 mps 666 mmHg 95%
    06:00 +18°C° 0 mm 2 mps 666 mmHg 93%
    07:00 +19°C° 0 mm 2 mps 667 mmHg 91%
    08:00 +21°C° 0 mm 2 mps 668 mmHg 81%
    09:00 +24°C° 0 mm 2 mps 668 mmHg 71%
    10:00 +26°C° 0 mm 2 mps 669 mmHg 61%
    11:00 +28°C° 0.4 mm 2 mps 668 mmHg 56%
    12:00 +29°C° 0.4 mm 1 mps 668 mmHg 52%
    13:00 +30°C° 0.4 mm 1 mps 668 mmHg 48%
    14:00 +30°C° 0.4 mm 1 mps 668 mmHg 50%
    15:00 +27°C° 0.4 mm 0 mps 667 mmHg 51%
    16:00 +26°C° 0.4 mm 0 mps 667 mmHg 53%
    17:00 +26°C° 0 mm 1 mps 666 mmHg 60%
    18:00 +24°C° 0 mm 1 mps 666 mmHg 66%
    19:00 +22°C° 0 mm 1 mps 666 mmHg 73%
    20:00 +22°C° 0.4 mm 1 mps 666 mmHg 77%
    21:00 +21°C° 0.4 mm 1 mps 666 mmHg 81%
    22:00 +20°C° 0.4 mm 1 mps 666 mmHg 85%
    23:00 +20°C° 0.1 mm 1 mps 666 mmHg 86%

    Tomorrow, 28 May, Sunday

    Time Temperature Precipitation Wind Pressure Humidity
    00:00 +19°C° 0.1 mm 2 mps 666 mmHg 87%
    01:00 +19°C° 0.1 mm 2 mps 666 mmHg 87%
    02:00 +18°C° 0 mm 2 mps 666 mmHg 89%
    03:00 +18°C° 0 mm 2 mps 666 mmHg 91%
    04:00 +18°C° 0 mm 1 mps 665 mmHg 93%
    05:00 +19°C° 0 mm 1 mps 666 mmHg 91%
    06:00 +19°C° 0 mm 1 mps 666 mmHg 89%
    07:00 +20°C° 0 mm 1 mps 667 mmHg 87%
    08:00 +23°C° 0 mm 1 mps 668 mmHg 76%
    09:00 +25°C° 0 mm 2 mps 668 mmHg 64%
    10:00 +28°C° 0 mm 2 mps 669 mmHg 53%
    11:00 +29°C° 0 mm 2 mps 669 mmHg 47%
    12:00 +30°C° 0 mm 2 mps 668 mmHg 41%
    13:00 +33°C° 0 mm 3 mps 668 mmHg 35%
    14:00 +31°C° 0 mm 2 mps 667 mmHg 35%
    15:00 +31°C° 0 mm 2 mps 667 mmHg 36%
    16:00 +31°C° 0 mm 2 mps 666 mmHg 37%
    17:00 +28°C° 0 mm 1 mps 666 mmHg 44%
    18:00 +25°C° 0 mm 1 mps 666 mmHg 50%
    19:00 +23°C° 0 mm 1 mps 665 mmHg 56%
    20:00 +22°C° 0.1 mm 1 mps 666 mmHg 59%
    21:00 +22°C° 0.1 mm 1 mps 666 mmHg 61%
    22:00 +21°C° 0.1 mm 1 mps 667 mmHg 64%
    23:00 +20°C° 0 mm 2 mps 667 mmHg 69%

    Day after tomorrow, 29 May, Monday

    Time Temperature Precipitation Wind Pressure Humidity
    00:00 +20°C° 0 mm 2 mps 666 mmHg 74%
    01:00 +19°C° 0 mm 2 mps 666 mmHg 79%
    02:00 +19°C° 0 mm 2 mps 666 mmHg 83%
    03:00 +18°C° 0 mm 2 mps 666 mmHg 86%
    04:00 +19°C° 0 mm 1 mps 665 mmHg 90%
    05:00 +19°C° 0 mm 1 mps 666 mmHg 87%
    06:00 +20°C° 0 mm 1 mps 666 mmHg 84%
    07:00 +21°C° 0 mm 1 mps 667 mmHg 80%
    08:00 +24°C° 0 mm 2 mps 668 mmHg 68%
    09:00 +26°C° 0 mm 2 mps 669 mmHg 56%
    10:00 +29°C° 0 mm 2 mps 669 mmHg 43%
    11:00 +30°C° 0 mm 2 mps 669 mmHg 39%
    12:00 +31°C° 0 mm 3 mps 669 mmHg 35%
    13:00 +33°C° 0 mm 3 mps 668 mmHg 31%
    14:00 +33°C° 0 mm 3 mps 668 mmHg 33%
    15:00 +31°C° 0 mm 2 mps 667 mmHg 36%
    16:00 +30°C° 0 mm 2 mps 666 mmHg 38%
    17:00 +27°C° 0 mm 1 mps 666 mmHg 44%
    18:00 +25°C° 0 mm 1 mps 666 mmHg 50%
    19:00 +22°C° 0 mm 1 mps 666 mmHg 56%
    20:00 +22°C° 0 mm 1 mps 666 mmHg 56%
    21:00 +22°C° 0 mm 1 mps 667 mmHg 56%
    22:00 +22°C° 0 mm 1 mps 667 mmHg 56%
    23:00 +22°C° 0 mm 1 mps 667 mmHg 54%

    30 May, Tuesday

    Time Temperature Precipitation Wind Pressure Humidity
    00:00 +22°C° 0 mm 1 mps 667 mmHg 53%
    01:00 +23°C° 0 mm 2 mps 667 mmHg 52%
    02:00 +22°C° 0 mm 1 mps 667 mmHg 56%
    03:00 +21°C° 0 mm 1 mps 666 mmHg 60%
    04:00 +20°C° 0 mm 1 mps 666 mmHg 64%
    05:00 +20°C° 0 mm 1 mps 666 mmHg 62%
    06:00 +20°C° 0 mm 2 mps 667 mmHg 60%
    07:00 +20°C° 0 mm 2 mps 667 mmHg 59%
    08:00 +24°C° 0 mm 3 mps 668 mmHg 51%
    09:00 +26°C° 0 mm 4 mps 669 mmHg 44%
    10:00 +29°C° 0 mm 5 mps 669 mmHg 36%
    11:00 +30°C° 0 mm 4 mps 669 mmHg 34%
    12:00 +32°C° 0 mm 4 mps 668 mmHg 32%
    13:00 +33°C° 0 mm 4 mps 668 mmHg 30%
    14:00 +33°C° 0 mm 4 mps 667 mmHg 31%
    15:00 +31°C° 0 mm 3 mps 667 mmHg 32%
    16:00 +31°C° 0 mm 3 mps 667 mmHg 33%
    17:00 +28°C° 0 mm 2 mps 666 mmHg 39%
    18:00 +25°C° 0 mm 2 mps 666 mmHg 45%
    19:00 +22°C° 0 mm 1 mps 666 mmHg 51%
    20:00 +22°C° 0 mm 1 mps 666 mmHg 52%
    21:00 +21°C° 0 mm 1 mps 667 mmHg 53%
    22:00 +21°C° 0 mm 1 mps 667 mmHg 54%
    23:00 +21°C° 0 mm 1 mps 667 mmHg 52%

    31 May, Wednesday

    Time Temperature Precipitation Wind Pressure Humidity
    00:00 +22°C° 0 mm 1 mps 667 mmHg 50%
    01:00 +21°C° 0 mm 2 mps 667 mmHg 48%
    02:00 +21°C° 0 mm 2 mps 667 mmHg 48%
    03:00 +21°C° 0 mm 2 mps 667 mmHg 48%
    04:00 +21°C° 0 mm 2 mps 667 mmHg 48%
    05:00 +21°C° 0 mm 2 mps 667 mmHg 50%
    06:00 +21°C° 0 mm 3 mps 668 mmHg 51%
    07:00 +21°C° 0 mm 3 mps 668 mmHg 53%
    08:00 +23°C° 0 mm 4 mps 669 mmHg 48%
    09:00 +26°C° 0 mm 5 mps 669 mmHg 43%
    10:00 +28°C° 0 mm 6 mps 670 mmHg 38%
    11:00 +29°C° 0 mm 5 mps 669 mmHg 35%
    12:00 +30°C° 0 mm 5 mps 668 mmHg 33%
    13:00 +32°C° 0 mm 4 mps 668 mmHg 30%
    14:00 +32°C° 0 mm 4 mps 668 mmHg 31%
    15:00 +31°C° 0 mm 3 mps 667 mmHg 31%
    16:00 +30°C° 0 mm 2 mps 667 mmHg 32%
    17:00 +28°C° 0 mm 2 mps 667 mmHg 37%
    18:00 +25°C° 0 mm 1 mps 667 mmHg 43%
    19:00 +22°C° 0 mm 1 mps 666 mmHg 49%
    20:00 +22°C° 0 mm 1 mps 667 mmHg 50%
    21:00 +22°C° 0 mm 1 mps 667 mmHg 50%
    22:00 +21°C° 0 mm 1 mps 667 mmHg 51%
    23:00 +21°C° 0 mm 1 mps 667 mmHg 51%

    1 June, Thursday

    Time Temperature Precipitation Wind Pressure Humidity
    00:00 +19°C° 0 mm 2 mps 667 mmHg 50%
    01:00 +19°C° 0 mm 2 mps 666 mmHg 50%
    02:00 +18°C° 0 mm 2 mps 666 mmHg 52%
    03:00 +17°C° 0 mm 2 mps 666 mmHg 54%
    04:00 +16°C° 0 mm 2 mps 666 mmHg 55%
    05:00 +17°C° 0 mm 2 mps 667 mmHg 56%
    06:00 +17°C° 0 mm 2 mps 667 mmHg 57%
    07:00 +17°C° 0 mm 2 mps 668 mmHg 58%
    08:00 +19°C° 0 mm 3 mps 669 mmHg 50%
    09:00 +22°C° 0 mm 4 mps 669 mmHg 43%
    10:00 +26°C° 0 mm 5 mps 670 mmHg 35%
    11:00 +27°C° 0 mm 5 mps 669 mmHg 32%
    12:00 +29°C° 0 mm 4 mps 669 mmHg 29%
    13:00 +30°C° 0 mm 4 mps 668 mmHg 27%
    14:00 +30°C° 0 mm 3 mps 667 mmHg 27%
    15:00 +30°C° 0 mm 3 mps 667 mmHg 28%
    16:00 +29°C° 0 mm 3 mps 666 mmHg 28%
    17:00 +27°C° 0 mm 2 mps 666 mmHg 33%
    18:00 +24°C° 0 mm 2 mps 666 mmHg 37%
    19:00 +20°C° 0 mm 2 mps 666 mmHg 42%
    20:00 +20°C° 0 mm 2 mps 666 mmHg 42%
    21:00 +19°C° 0 mm 2 mps 667 mmHg 41%
    22:00 +19°C° 0 mm 2 mps 667 mmHg 41%
    23:00 +18°C° 0 mm 2 mps 667 mmHg 41%
    Show more